[[{"header":{"parameterUnit":"m.s-1","parameterCategory":1,"la1":30.2991,"la2":30.254,"lo1":-89.0895,"lo2":-89.0444,"dy":0.0017,"dx":0.0017,"nx":28,"ny":28,"refTime":"2025-09-13T21:00:00:Z","depth":0,"parameterNumber":2,"parameterNumberName":"U-component_of_WINDS"},"data":[0,0,0,0,0,0,0,0,0,0,0,0,0,0,0,0,0,0,0,0,0,0,0,0,0,0,0,0,0,0,0,0,0,0,0,0,0,0,0,0,0,0,0,0,0,0,0,0,0,0,0,0,0,0,0,0,0,0,-2.4242,-2.4243,0,-2.4358,-2.4359,-2.436,-2.4401,-2.44,-2.44,-2.4399,-2.4518,-2.4521,-2.4525,0,0,0,0,0,0,0,0,0,0,0,0,0,-2.4055,-2.4058,-2.4241,-2.4243,-2.4244,-2.4357,-2.4359,-2.436,-2.4401,-2.44,-2.44,-2.4399,-2.4517,-2.4521,-2.4525,0,0,0,0,0,0,0,0,0,0,0,0,0,-2.415,-2.4059,-2.4241,-2.4278,-2.4283,-2.4357,-2.4359,-2.4361,-2.4401,-2.44,-2.4399,-2.4399,-2.4515,-2.4521,-2.4526,-2.4572,0,0,-2.4542,-2.4545,0,0,0,0,0,0,0,0,-2.4145,-2.4157,-2.4271,-2.4276,-2.4281,-2.4364,-2.4337,-2.4432,-2.4401,-2.4356,-2.4399,-2.4398,-2.4467,-2.4476,-2.45,-2.4578,-2.4583,-2.4543,-2.4546,-2.4548,-2.455,0,0,0,0,0,0,0,-2.4138,-2.4152,-2.4287,-2.4273,-2.4279,-2.4289,-2.4302,-2.4355,-2.4414,-2.436,-2.4363,-2.4376,-2.447,-2.4494,-2.4503,-2.4584,-2.4543,-2.4547,-2.4551,-2.4553,-2.4707,-2.4708,0,0,0,0,0,0,-2.4125,-2.4146,-2.4284,-2.4291,-2.421,-2.4293,-2.4307,-2.4338,-2.4413,-2.4424,-2.4377,-2.4378,-2.4486,-2.4496,-2.4507,-2.4567,-2.4548,-2.4553,-2.4556,-2.4706,-2.4707,-2.4708,0,0,0,0,0,0,-2.4121,-2.4137,-2.4279,-2.422,-2.4238,-2.4297,-2.4331,-2.4341,-2.4365,-2.4426,-2.4437,-2.4391,-2.4485,-2.45,-2.4556,-2.4572,-2.4556,-2.456,-2.4705,-2.4707,-2.4708,-2.4686,0,0,0,0,0,0,-2.4116,-2.4135,-2.4153,-2.422,-2.4241,-2.4326,-2.4332,-2.4343,-2.4374,-2.4377,-2.4442,-2.4453,-2.4486,-2.4548,-2.4561,-2.4579,-2.4565,-2.4704,-2.4706,-2.4708,-2.4686,-2.4687,-2.4688,0,0,0,0,0,-2.4109,-2.4143,-2.4154,-2.417,-2.4265,-2.4326,-2.4339,-2.4377,-2.4375,-2.4394,-2.4433,-2.4451,-2.4568,-2.4553,-2.4569,-2.4588,-2.4703,-2.4705,-2.4707,-2.4686,-2.4687,-2.4687,0,0,0,0,0,0,-2.4076,-2.4152,-2.4166,-2.4222,-2.4267,-2.4333,-2.4358,-2.4376,-2.4423,-2.4424,-2.4468,-2.4483,-2.4536,-2.4568,-2.455,-2.4637,-2.4637,-2.4642,-2.4615,-2.4616,-2.4617,-2.4608,-2.4569,0,0,0,0,0,-2.4076,-2.4119,-2.4183,-2.4226,-2.4248,-2.4299,-2.4327,-2.4352,-2.4402,-2.4421,-2.4464,-2.4511,-2.4559,-2.4589,-2.4636,-2.4691,-2.4706,-2.4712,-2.4712,-2.4713,-2.4717,-2.4749,-2.4752,-2.4715,-2.4715,-2.4715,0,0,-2.4075,-2.4122,-2.4146,-2.4221,-2.4259,-2.4303,-2.4315,-2.4361,-2.4395,-2.4428,-2.4484,-2.4517,-2.4573,-2.4629,-2.4655,-2.4657,-2.4731,-2.4715,-2.4715,-2.4719,-2.4751,-2.4755,-2.4758,-2.4716,-2.4716,-2.4716,0,0,-2.4096,-2.4135,-2.4176,-2.4215,-2.4273,-2.4306,-2.4316,-2.438,-2.4403,-2.446,-2.4486,-2.4527,-2.4607,-2.4646,-2.4676,-2.4713,-2.473,-2.4727,-2.4731,-2.4761,-2.4764,-2.4767,-2.4781,-2.4785,-2.473,-2.473,-2.473,0,-2.4088,-2.4155,-2.4195,-2.424,-2.4272,-2.4305,-2.4347,-2.4382,-2.4452,-2.4474,-2.4475,-2.4577,-2.4617,-2.4682,-2.4691,-2.4714,-2.4727,-2.4719,-2.4761,-2.4764,-2.4767,-2.4781,-2.4786,-2.473,-2.473,-2.473,-2.473,0,-2.4142,-2.4189,-2.4215,-2.4283,-2.4318,-2.4361,-2.4407,-2.4438,-2.446,-2.4494,-2.4552,-2.4601,-2.4658,-2.4676,-2.4698,-2.4745,-2.4744,-2.4752,-2.4752,-2.4769,-2.4783,-2.4788,-2.4728,-2.4729,-2.4729,-2.4729,0,0,-2.4146,-2.4236,-2.4244,-2.4276,-2.4343,-2.4379,-2.4424,-2.4481,-2.4507,-2.4554,-2.4593,-2.4661,-2.4669,-2.4703,-2.473,-2.4757,-2.4783,-2.4762,-2.4764,-2.4765,-2.4839,-2.4833,-2.4838,-2.4795,-2.4797,-2.4798,-2.4834,0,-2.4176,-2.4258,-2.4296,-2.4361,-2.4404,-2.4436,-2.4475,-2.4521,-2.4553,-2.4595,-2.4632,-2.4679,-2.4686,-2.4707,-2.4735,-2.4774,-2.4799,-2.4772,-2.4833,-2.4834,-2.4818,-2.4845,-2.4838,-2.4871,-2.484,-2.4841,-2.4841,0,-2.4223,-2.4271,-2.434,-2.4402,-2.4422,-2.4457,-2.4512,-2.4552,-2.4604,-2.4626,-2.4664,-2.469,-2.4739,-2.4735,-2.4803,-2.4784,-2.4811,-2.4834,-2.4837,-2.4844,-2.4839,-2.4853,-2.4882,-2.4887,-2.485,-2.4849,-2.4849,0,-2.4219,-2.4301,-2.4353,-2.4379,-2.4453,-2.4476,-2.4508,-2.456,-2.4592,-2.464,-2.4661,-2.4714,-2.4744,-2.4784,-2.4824,-2.4818,-2.4888,-2.4888,-2.4908,-2.4907,-2.4922,-2.492,-2.4956,-2.4939,-2.4938,-2.4938,-2.4938,0,-2.4249,-2.4291,-2.4353,-2.4385,-2.4433,-2.4475,-2.4521,-2.4555,-2.4601,-2.464,-2.4671,-2.4708,-2.4757,-2.48,-2.4832,-2.4884,-2.4896,-2.4916,-2.4924,-2.4913,-2.4911,-2.4932,-2.4931,-2.494,-2.4939,-2.4939,-2.4939,0,-2.4253,-2.4297,-2.4356,-2.4421,-2.4438,-2.4471,-2.4526,-2.4559,-2.4593,-2.4643,-2.4657,-2.4711,-2.4763,-2.4807,-2.4875,-2.4896,-2.495,-2.4959,-2.4933,-2.4937,-2.4955,-2.4953,-2.5005,-2.5014,-2.499,-2.499,-2.499,0,-2.427,-2.4302,-2.4371,-2.44,-2.4432,-2.4477,-2.451,-2.4554,-2.4587,-2.4649,-2.4674,-2.4729,-2.4774,-2.4856,-2.4902,-2.4954,-2.4965,-2.498,-2.4973,-2.4962,-2.4966,-2.4964,-2.4967,-2.498,-2.498,-2.498,-2.498,0,-2.4295,-2.4315,-2.4361,-2.4415,-2.4453,-2.4498,-2.4543,-2.4565,-2.4617,-2.4652,-2.4706,-2.4742,-2.4812,-2.4866,-2.4923,-2.4956,-2.4977,-2.4982,-2.499,-2.4979,-2.4963,-2.4973,-2.4934,-2.4981,-2.4981,-2.4981,-2.4981,-2.4981,-2.4306,-2.4337,-2.439,-2.4441,-2.448,-2.4521,-2.4555,-2.4594,-2.464,-2.47,-2.4723,-2.4778,-2.483,-2.491,-2.4943,-2.4987,-2.499,-2.5,-2.5003,-2.5005,-2.5004,-2.4956,-2.4998,-2.4998,-2.4998,-2.4998,-2.4998,0,-2.4333,-2.4369,-2.4415,-2.4478,-2.4518,-2.4534,-2.4585,-2.4617,-2.4666,-2.4712,-2.4757,-2.4819,-2.4872,-2.4921,-2.4976,-2.5002,-2.5013,-2.5015,-2.5014,-2.5021,-2.4998,-2.4987,-2.5005,-2.5005,-2.5005,-2.5005,-2.5005,-2.5005,-2.4351,-2.4405,-2.4431,-2.4504,-2.454,-2.4594,-2.4622,-2.4661,-2.4699,-2.4766,-2.481,-2.4842,-2.4891,-2.4949,-2.4998,-2.5012,-2.5031,-2.503,-2.5046,-2.5024,-2.5023,-2.5021,-2.5011,-2.5034,-2.5034,-2.5065,-2.5065,-2.5066]},{"header":{"parameterUnit":"m.s-1","parameterCategory":1,"la1":30.2991,"la2":30.254,"lo1":-89.0895,"lo2":-89.0444,"dy":0.0017,"dx":0.0017,"nx":28,"ny":28,"refTime":"2025-09-13T21:00:00:Z","depth":0,"parameterNumber":3,"parameterNumberName":"V-component_of_WINDS"},"data":[0,0,0,0,0,0,0,0,0,0,0,0,0,0,0,0,0,0,0,0,0,0,0,0,0,0,0,0,0,0,0,0,0,0,0,0,0,0,0,0,0,0,0,0,0,0,0,0,0,0,0,0,0,0,0,0,0,0,-0.3095,-0.3095,0,-0.3066,-0.3065,-0.3065,-0.3006,-0.3005,-0.3004,-0.3003,-0.2973,-0.2974,-0.2974,0,0,0,0,0,0,0,0,0,0,0,0,0,-0.3103,-0.3103,-0.3096,-0.3095,-0.3095,-0.3066,-0.3065,-0.3065,-0.3006,-0.3005,-0.3003,-0.3002,-0.2973,-0.2974,-0.2974,0,0,0,0,0,0,0,0,0,0,0,0,0,-0.3089,-0.3103,-0.3096,-0.3062,-0.3059,-0.3066,-0.3065,-0.3065,-0.3006,-0.3005,-0.3003,-0.3001,-0.2973,-0.2974,-0.2974,-0.3012,0,0,-0.2975,-0.2976,0,0,0,0,0,0,0,0,-0.309,-0.3089,-0.3067,-0.3064,-0.3061,-0.3038,-0.3057,-0.3047,-0.3007,-0.3026,-0.3003,-0.3,-0.2996,-0.2995,-0.2993,-0.301,-0.3009,-0.2975,-0.2976,-0.2976,-0.2976,0,0,0,0,0,0,0,-0.3091,-0.309,-0.3084,-0.3067,-0.3063,-0.3049,-0.3045,-0.3055,-0.3022,-0.3025,-0.302,-0.3017,-0.2994,-0.2993,-0.2992,-0.3009,-0.2975,-0.2976,-0.2976,-0.2976,-0.3056,-0.3057,0,0,0,0,0,0,-0.3097,-0.3091,-0.3085,-0.3083,-0.3071,-0.305,-0.3046,-0.3047,-0.3021,-0.3016,-0.3019,-0.3015,-0.2993,-0.2991,-0.2991,-0.3033,-0.2976,-0.2976,-0.2977,-0.3054,-0.3056,-0.3058,0,0,0,0,0,0,-0.3097,-0.3097,-0.3086,-0.3086,-0.3083,-0.3052,-0.3054,-0.3047,-0.3046,-0.3017,-0.3011,-0.3023,-0.2991,-0.299,-0.3007,-0.3031,-0.2977,-0.2977,-0.3052,-0.3054,-0.3057,-0.3119,0,0,0,0,0,0,-0.3098,-0.3097,-0.3111,-0.3087,-0.3084,-0.3103,-0.3055,-0.3048,-0.3046,-0.3041,-0.302,-0.3014,-0.299,-0.3006,-0.3007,-0.3031,-0.2977,-0.3049,-0.3053,-0.3056,-0.3115,-0.3123,-0.3131,0,0,0,0,0,-0.3098,-0.313,-0.3112,-0.3112,-0.31,-0.3104,-0.3102,-0.3073,-0.3049,-0.3062,-0.3044,-0.3015,-0.3028,-0.3009,-0.3009,-0.3033,-0.3048,-0.3052,-0.3056,-0.3111,-0.3122,-0.3131,0,0,0,0,0,0,-0.3159,-0.3126,-0.3106,-0.3131,-0.3121,-0.3094,-0.3111,-0.3085,-0.3082,-0.3077,-0.3041,-0.3037,-0.3059,-0.3047,-0.3026,-0.3069,-0.3033,-0.3038,-0.3075,-0.3085,-0.3093,-0.3096,-0.2978,0,0,0,0,0,-0.3175,-0.3181,-0.3152,-0.3177,-0.3172,-0.3143,-0.3143,-0.3121,-0.311,-0.3105,-0.3088,-0.3078,-0.3079,-0.3082,-0.3082,-0.3112,-0.3107,-0.3129,-0.3138,-0.3144,-0.3149,-0.3164,-0.3174,-0.3072,-0.3071,-0.3071,0,0,-0.3209,-0.3192,-0.3198,-0.3188,-0.3178,-0.3185,-0.3139,-0.3149,-0.3154,-0.3107,-0.3121,-0.3108,-0.3095,-0.3119,-0.3129,-0.311,-0.3176,-0.315,-0.3155,-0.3156,-0.317,-0.3179,-0.3188,-0.3074,-0.3074,-0.3073,0,0,-0.3274,-0.3262,-0.3281,-0.3271,-0.3255,-0.3235,-0.324,-0.3217,-0.3207,-0.3221,-0.3186,-0.3191,-0.3195,-0.3187,-0.3183,-0.3245,-0.3218,-0.3246,-0.3289,-0.3305,-0.3313,-0.332,-0.3342,-0.3351,-0.325,-0.325,-0.325,0,-0.3318,-0.3327,-0.3294,-0.3305,-0.3303,-0.326,-0.3279,-0.3271,-0.3257,-0.3256,-0.3236,-0.3239,-0.3227,-0.3249,-0.3264,-0.3262,-0.3267,-0.3248,-0.3314,-0.3321,-0.3327,-0.3348,-0.3356,-0.3254,-0.3253,-0.3253,-0.3253,0,-0.3382,-0.3389,-0.3406,-0.3393,-0.3392,-0.3407,-0.3377,-0.338,-0.3358,-0.334,-0.3355,-0.3339,-0.3335,-0.3338,-0.3317,-0.3357,-0.3346,-0.3321,-0.3285,-0.3341,-0.336,-0.3368,-0.3259,-0.3257,-0.3256,-0.3256,0,0,-0.3486,-0.3453,-0.3461,-0.3454,-0.3433,-0.3438,-0.3451,-0.3447,-0.3451,-0.3442,-0.3453,-0.3457,-0.3433,-0.3429,-0.3406,-0.342,-0.347,-0.3392,-0.3391,-0.3408,-0.3513,-0.3533,-0.3543,-0.3452,-0.3453,-0.3454,-0.3514,0,-0.3547,-0.3568,-0.3538,-0.3566,-0.3572,-0.3531,-0.3543,-0.3532,-0.3515,-0.3518,-0.35,-0.3503,-0.3471,-0.3468,-0.348,-0.3461,-0.3491,-0.3457,-0.3462,-0.3463,-0.3468,-0.3553,-0.3574,-0.3632,-0.3522,-0.3523,-0.3524,0,-0.3621,-0.3616,-0.3644,-0.3621,-0.3623,-0.3634,-0.3627,-0.363,-0.3617,-0.3604,-0.3599,-0.3572,-0.3584,-0.3549,-0.3565,-0.3543,-0.3543,-0.3534,-0.3536,-0.3536,-0.3497,-0.3556,-0.3649,-0.3658,-0.3535,-0.3534,-0.3533,0,-0.3695,-0.3694,-0.3711,-0.3706,-0.3681,-0.3689,-0.3679,-0.3664,-0.3663,-0.3657,-0.3657,-0.3653,-0.3651,-0.3649,-0.3621,-0.3598,-0.3641,-0.3603,-0.3631,-0.3632,-0.3643,-0.3643,-0.3738,-0.3642,-0.3642,-0.3642,-0.3642,0,-0.3766,-0.3785,-0.3743,-0.3754,-0.3774,-0.374,-0.3761,-0.3747,-0.3733,-0.3741,-0.3705,-0.3712,-0.3675,-0.3679,-0.3658,-0.3675,-0.3674,-0.3664,-0.3658,-0.3668,-0.3669,-0.3668,-0.3664,-0.3644,-0.3643,-0.3643,-0.3643,0,-0.3852,-0.3825,-0.384,-0.3814,-0.3808,-0.3824,-0.3802,-0.3811,-0.3792,-0.3801,-0.3802,-0.3772,-0.3774,-0.3747,-0.3744,-0.3729,-0.3756,-0.3743,-0.3761,-0.3757,-0.3787,-0.3784,-0.3885,-0.3897,-0.3793,-0.3794,-0.3795,0,-0.39,-0.3913,-0.3889,-0.3891,-0.3882,-0.3886,-0.3885,-0.3851,-0.3852,-0.3837,-0.3848,-0.3847,-0.3845,-0.3851,-0.383,-0.3827,-0.3814,-0.385,-0.3814,-0.3823,-0.3815,-0.3815,-0.3816,-0.3858,-0.3859,-0.386,-0.3861,0,-0.3988,-0.3974,-0.3973,-0.3968,-0.3968,-0.3962,-0.3954,-0.3958,-0.3922,-0.3924,-0.3926,-0.3924,-0.3921,-0.3921,-0.3914,-0.3904,-0.3877,-0.3872,-0.3878,-0.3889,-0.3899,-0.3894,-0.3782,-0.387,-0.3869,-0.3869,-0.3868,-0.3868,-0.4057,-0.4067,-0.4051,-0.4052,-0.4042,-0.4035,-0.4042,-0.4024,-0.4025,-0.4019,-0.4,-0.4005,-0.3991,-0.3979,-0.3971,-0.3975,-0.3958,-0.3967,-0.3969,-0.3972,-0.3978,-0.3897,-0.3974,-0.3973,-0.3973,-0.3973,-0.3973,0,-0.4143,-0.4131,-0.4132,-0.4122,-0.4122,-0.4096,-0.4085,-0.4088,-0.4093,-0.4082,-0.408,-0.4083,-0.4082,-0.406,-0.4057,-0.4065,-0.4052,-0.4065,-0.4065,-0.4063,-0.3993,-0.3988,-0.4075,-0.4075,-0.4075,-0.4075,-0.4075,-0.4075,-0.4189,-0.4205,-0.4188,-0.4199,-0.4187,-0.4191,-0.4188,-0.4182,-0.4173,-0.4177,-0.4176,-0.4161,-0.4146,-0.4142,-0.414,-0.4134,-0.4135,-0.4152,-0.4142,-0.4078,-0.4068,-0.4058,-0.4053,-0.4153,-0.4153,-0.4211,-0.4211,-0.4212]}]]